[Date Prev][Date Next][Thread Prev][Thread Next] - [Date Index][Thread Index][Author Index]
2 Line ISS Keps 8-26
- Subject: [sarex] 2 Line ISS Keps 8-26
- From: "Dave Larsen PhD" <doc@xxxxxxxxxxx>
- Date: Thu, 26 Aug 2004 05:01:22 -0700
ISS
1 25544U 98067A 04239.48706462 .00054246 00000-0 46168-3 0 5350
2 25544 51.6368 326.8300 0005390 76.7361 10.8299 15.69018094329365
----
Via the sarex mailing list at AMSAT.ORG courtesy of AMSAT-NA.
To unsubscribe, send "unsubscribe sarex" to Majordomo@amsat.org
AMSAT Home